Overview Statistics Trail Chart Weather Telemetry Raw packets
 

This is the latest recevied weather packets stored in our database for station/object K7DC. If no packets are shown the sender has not sent any weather packets the latest 10 day(s).

<< 70 71 72 73 74 75 76 >>
Time Temp. Humidity Pressure Rain* Wind** Luminosity Snow
1788135853 35.56° C 32% 1011.8 hPa 0 mm - 34 W/m² -
1788135548 36.11° C 31% 1011.9 hPa 0 mm - 44 W/m² -
1788135243 36.11° C 30% 1011.9 hPa 0 mm - 113 W/m² -
1788134941 36.11° C 31% 1011.7 hPa 0 mm - 82 W/m² -
1788134636 36.67° C 30% 1012.1 hPa 0 mm - 154 W/m² -
1788134334 36.67° C 31% 1011.9 hPa 0 mm - 122 W/m² -
1788134029 36.67° C 30% 1011.8 hPa 0 mm - 200 W/m² -
1788133724 36.67° C 31% 1011.8 hPa 0 mm - 225 W/m² -
1788133420 36.67° C 29% 1012.1 hPa 0 mm - 229 W/m² -
1788133116 36.67° C 29% 1011.7 hPa 0 mm - 243 W/m² -
1788132811 36.11° C 31% 1012 hPa 0 mm - 272 W/m² -
1788132507 36.11° C 31% 1011.9 hPa 0 mm - 296 W/m² -
1788132202 36.11° C 30% 1011.8 hPa 0 mm - 95 W/m² -
1788131899 36.67° C 29% 1012 hPa 0 mm - 85 W/m² -
1788131599 37.22° C 29% 1012 hPa 0 mm - 345 W/m² -
1788131293 37.22° C 30% 1012.2 hPa 0 mm - 363 W/m² -
1788130988 36.67° C 29% 1012.1 hPa 0 mm - 387 W/m² -
1788130688 36.67° C 29% 1012.6 hPa 0 mm - 410 W/m² -
1788130383 36.67° C 30% 1012.7 hPa 0 mm - 433 W/m² -
1788130082 37.22° C 29% 1012.8 hPa 0 mm - 452 W/m² -
1788129777 37.22° C 29% 1012.9 hPa 0 mm - 475 W/m² -
1788129474 37.22° C 30% 1013 hPa 0 mm - 503 W/m² -
1788129170 37.22° C 30% 1012.9 hPa 0 mm - 535 W/m² -
1788128864 37.22° C 30% 1013 hPa 0 mm - 548 W/m² -
1788128560 36.67° C 30% 1013.2 hPa 0 mm - 559 W/m² -

* Rain latest hour (hover to see other rain measurements)
** Current wind speed in m/s (hover to see current wind gust speed)